Time,TemperatureF,DewpointF,PressureIn,WindDirection,WindDirectionDegrees,WindSpeedMPH,WindSpeedGustMPH,Humidity,HourlyPrecipIn,Conditions,Clouds,dailyrainin,SoftwareType,DateUTC
2013-05-07 00:00:00,67.2,46.9,28.02,East,94,0.0,20.8,79,0.00,,,-99.99,HOBO +U30 +Weather +,2013-05-07 07:00:00,
2013-05-07 00:15:00,67.0,46.7,28.02,East,94,0.0,21.5,80,0.00,,,-99.99,HOBO +U30 +Weather +,2013-05-07 07:15:00,
2013-05-07 00:30:00,66.8,46.3,28.03,East,94,0.0,22.8,82,0.00,,,-99.99,HOBO +U30 +Weather +,2013-05-07 07:30:00,
2013-05-07 00:45:00,66.6,45.9,28.03,East,94,0.0,20.8,83,0.00,,,-99.99,HOBO +U30 +Weather +,2013-05-07 07:45:00,
2013-05-07 01:00:00,66.3,45.8,28.03,East,94,0.0,20.8,85,0.00,,,-99.99,HOBO +U30 +Weather +,2013-05-07 08:00:00,
2013-05-07 01:15:00,66.1,45.6,28.02,East,94,0.0,20.8,86,0.00,,,-99.99,HOBO +U30 +Weather +,2013-05-07 08:15:00,
2013-05-07 01:30:00,65.9,45.8,28.03,East,94,0.0,20.4,86,0.00,,,-99.99,HOBO +U30 +Weather +,2013-05-07 08:30:00,
2013-05-07 01:45:00,65.7,45.6,28.03,East,94,0.0,21.5,88,0.00,,,-99.99,HOBO +U30 +Weather +,2013-05-07 08:45:00,
2013-05-07 02:00:00,65.5,45.4,28.03,East,94,0.0,21.5,88,0.00,,,-99.99,HOBO +U30 +Weather +,2013-05-07 09:00:00,
2013-05-07 02:15:00,65.3,45.3,28.03,East,94,0.0,21.5,89,0.00,,,-99.99,HOBO +U30 +Weather +,2013-05-07 09:15:00,
2013-05-07 02:30:00,65.1,44.7,28.03,East,94,0.0,21.9,90,0.00,,,-99.99,HOBO +U30 +Weather +,2013-05-07 09:30:00,
2013-05-07 02:45:00,64.8,45.0,28.04,East,94,0.0,21.3,89,0.00,,,-99.99,HOBO +U30 +Weather +,2013-05-07 09:45:00,
2013-05-07 03:00:00,64.6,44.4,28.04,ESE,115,0.0,24.8,91,0.00,,,-99.99,HOBO +U30 +Weather +,2013-05-07 10:00:00,
2013-05-07 03:15:00,64.5,44.2,28.04,SE,131,0.0,21.3,91,0.00,,,-99.99,HOBO +U30 +Weather +,2013-05-07 10:15:00,
2013-05-07 03:30:00,64.2,43.9,28.04,SE,131,0.0,21.9,90,0.00,,,-99.99,HOBO +U30 +Weather +,2013-05-07 10:30:00,
2013-05-07 03:45:00,64.0,44.1,28.05,SE,131,0.0,21.9,92,0.00,,,-99.99,HOBO +U30 +Weather +,2013-05-07 10:45:00,
2013-05-07 04:00:00,63.9,43.7,28.06,SE,131,0.0,24.2,92,0.00,,,-99.99,HOBO +U30 +Weather +,2013-05-07 11:00:00,
2013-05-07 04:15:00,63.6,43.7,28.06,SE,131,0.0,21.5,91,0.00,,,-99.99,HOBO +U30 +Weather +,2013-05-07 11:15:00,
2013-05-07 04:30:00,63.5,43.0,28.07,SE,131,0.0,19.5,92,0.00,,,-99.99,HOBO +U30 +Weather +,2013-05-07 11:30:00,
2013-05-07 04:45:00,63.3,43.6,28.07,SE,131,0.0,19.0,92,0.00,,,-99.99,HOBO +U30 +Weather +,2013-05-07 11:45:00,
2013-05-07 05:00:00,63.1,42.7,28.07,SE,131,0.0,17.9,93,0.00,,,-99.99,HOBO +U30 +Weather +,2013-05-07 12:00:00,
2013-05-07 05:15:00,62.9,42.4,28.07,SE,131,0.0,15.4,92,0.00,,,-99.99,HOBO +U30 +Weather +,2013-05-07 12:15:00,
2013-05-07 05:30:00,62.7,41.4,28.07,SE,131,0.0,13.6,93,0.00,,,-99.99,HOBO +U30 +Weather +,2013-05-07 12:30:00,
2013-05-07 05:45:00,62.5,42.1,28.07,SE,131,0.0,12.5,94,0.00,,,-99.99,HOBO +U30 +Weather +,2013-05-07 12:45:00,
2013-05-07 06:00:00,62.4,41.7,28.08,SE,131,0.0,13.0,94,0.00,,,-99.99,HOBO +U30 +Weather +,2013-05-07 13:00:00,
2013-05-07 06:15:00,62.2,42.3,28.08,SE,131,0.0,13.2,94,0.00,,,-99.99,HOBO +U30 +Weather +,2013-05-07 13:15:00,
2013-05-07 06:30:00,62.0,41.8,28.09,SE,131,0.0,14.1,93,0.00,,,-99.99,HOBO +U30 +Weather +,2013-05-07 13:30:00,
2013-05-07 06:45:00,61.8,41.7,28.09,SE,132,0.0,17.4,94,0.00,,,-99.99,HOBO +U30 +Weather +,2013-05-07 13:45:00,
2013-05-07 07:00:00,61.6,42.6,28.09,SE,133,0.0,19.0,93,0.00,,,-99.99,HOBO +U30 +Weather +,2013-05-07 14:00:00,
2013-05-07 07:15:00,61.5,46.5,28.09,SE,133,0.0,20.8,91,0.00,,,-99.99,HOBO +U30 +Weather +,2013-05-07 14:15:00,
2013-05-07 07:30:00,61.3,47.0,28.09,SE,133,0.0,21.5,83,0.00,,,-99.99,HOBO +U30 +Weather +,2013-05-07 14:30:00,
2013-05-07 07:45:00,61.2,46.5,28.09,SE,133,0.0,24.4,77,0.00,,,-99.99,HOBO +U30 +Weather +,2013-05-07 14:45:00,
2013-05-07 08:00:00,61.0,44.8,28.09,SSW,195,0.0,21.9,78,0.00,,,-99.99,HOBO +U30 +Weather +,2013-05-07 15:00:00,
2013-05-07 08:15:00,60.9,45.6,28.09,SW,222,0.4,24.4,76,0.00,,,-99.99,HOBO +U30 +Weather +,2013-05-07 15:15:00,
2013-05-07 08:30:00,60.9,45.9,28.09,SW,229,1.3,7.2,74,0.00,,,-99.99,HOBO +U30 +Weather +,2013-05-07 15:30:00,
2013-05-07 08:45:00,60.8,46.4,28.09,SW,216,0.4,4.9,70,0.00,,,-99.99,HOBO +U30 +Weather +,2013-05-07 15:45:00,
2013-05-07 09:05:00,60.7,47.1,28.09,SW,230,0.4,22.4,67,0.00,,,-99.99,HOBO +U30 +Weather +,2013-05-07 16:05:00,
2013-05-07 09:15:00,60.6,47.9,28.09,South,183,0.0,20.8,60,0.00,,,-99.99,HOBO +U30 +Weather +,2013-05-07 16:15:00,
2013-05-07 09:30:00,60.5,47.2,28.09,WSW,243,0.9,19.0,59,0.00,,,-99.99,HOBO +U30 +Weather +,2013-05-07 16:30:00,
2013-05-07 09:45:00,60.5,48.9,28.09,WSW,239,1.3,17.9,58,0.00,,,-99.99,HOBO +U30 +Weather +,2013-05-07 16:45:00,
2013-05-07 10:04:00,60.4,49.7,28.09,West,270,4.3,14.1,60,0.00,,,-99.99,HOBO +U30 +Weather +,2013-05-07 17:04:00,
2013-05-07 10:15:00,60.5,49.5,28.09,WSW,251,6.3,14.1,59,0.00,,,-99.99,HOBO +U30 +Weather +,2013-05-07 17:15:00,
2013-05-07 10:30:00,60.5,50.4,28.08,WNW,295,4.9,12.1,55,0.00,,,-99.99,HOBO +U30 +Weather +,2013-05-07 17:30:00,
2013-05-07 10:45:00,60.6,51.1,28.08,WNW,282,3.8,13.2,57,0.00,,,-99.99,HOBO +U30 +Weather +,2013-05-07 17:45:00,
2013-05-07 11:04:00,60.6,52.1,28.08,WNW,282,5.4,17.4,58,0.00,,,-99.99,HOBO +U30 +Weather +,2013-05-07 18:04:00,
2013-05-07 11:15:00,60.8,51.6,28.08,WNW,295,4.5,12.5,56,0.00,,,-99.99,HOBO +U30 +Weather +,2013-05-07 18:15:00,
2013-05-07 11:30:00,60.9,51.5,28.08,WNW,295,4.5,20.4,53,0.00,,,-99.99,HOBO +U30 +Weather +,2013-05-07 18:30:00,
2013-05-07 11:45:00,61.2,52.8,28.08,WNW,292,4.5,12.5,56,0.00,,,-99.99,HOBO +U30 +Weather +,2013-05-07 18:45:00,
2013-05-07 12:04:00,61.4,52.4,28.08,WNW,292,5.8,14.1,57,0.00,,,-99.99,HOBO +U30 +Weather +,2013-05-07 19:04:00,
2013-05-07 12:15:00,61.7,52.0,28.08,West,270,4.5,19.5,54,0.00,,,-99.99,HOBO +U30 +Weather +,2013-05-07 19:15:00,
2013-05-07 12:30:00,62.0,53.2,28.07,NW,310,4.9,13.2,55,0.00,,,-99.99,HOBO +U30 +Weather +,2013-05-07 19:30:00,
2013-05-07 12:45:00,62.3,52.9,28.07,WNW,299,4.9,21.5,56,0.00,,,-99.99,HOBO +U30 +Weather +,2013-05-07 19:45:00,
2013-05-07 13:05:00,62.7,51.8,28.07,WNW,289,4.5,14.5,51,0.00,,,-99.99,HOBO +U30 +Weather +,2013-05-07 20:05:00,
2013-05-07 13:15:00,63.0,53.4,28.07,West,272,5.4,25.3,51,0.00,,,-99.99,HOBO +U30 +Weather +,2013-05-07 20:15:00,
2013-05-07 13:30:00,63.4,52.5,28.07,WSW,258,6.7,27.1,52,0.00,,,-99.99,HOBO +U30 +Weather +,2013-05-07 20:30:00,
2013-05-07 13:45:00,63.9,52.7,28.07,West,261,7.4,17.4,51,0.00,,,-99.99,HOBO +U30 +Weather +,2013-05-07 20:45:00,
2013-05-07 14:04:00,64.2,52.7,28.07,West,271,7.2,24.4,53,0.00,,,-99.99,HOBO +U30 +Weather +,2013-05-07 21:04:00,
2013-05-07 14:15:00,64.6,52.2,28.07,West,271,7.4,21.3,52,0.00,,,-99.99,HOBO +U30 +Weather +,2013-05-07 21:15:00,
2013-05-07 14:30:00,65.1,53.7,28.07,West,279,6.3,24.4,50,0.00,,,-99.99,HOBO +U30 +Weather +,2013-05-07 21:30:00,
2013-05-07 14:45:00,65.5,53.3,28.08,NW,317,4.5,14.5,46,0.00,,,-99.99,HOBO +U30 +Weather +,2013-05-07 21:45:00,
2013-05-07 15:04:00,65.9,53.7,28.08,WNW,300,4.5,21.9,48,0.00,,,-99.99,HOBO +U30 +Weather +,2013-05-07 22:04:00,
2013-05-07 15:15:00,66.3,52.4,28.07,NW,307,4.5,12.1,48,0.00,,,-99.99,HOBO +U30 +Weather +,2013-05-07 22:15:00,
2013-05-07 15:30:00,66.7,52.3,28.07,WNW,285,7.4,19.0,50,0.00,,,-99.99,HOBO +U30 +Weather +,2013-05-07 22:30:00,
2013-05-07 15:45:00,67.1,52.8,28.07,West,272,7.2,17.9,51,0.00,,,-99.99,HOBO +U30 +Weather +,2013-05-07 22:45:00,
2013-05-07 16:04:00,67.5,52.2,28.07,West,277,7.2,22.8,51,0.00,,,-99.99,HOBO +U30 +Weather +,2013-05-07 23:04:00,
2013-05-07 16:15:00,67.9,52.5,28.07,West,279,7.2,22.8,52,0.00,,,-99.99,HOBO +U30 +Weather +,2013-05-07 23:15:00,
2013-05-07 16:30:00,68.2,52.5,28.07,West,277,6.3,17.9,51,0.00,,,-99.99,HOBO +U30 +Weather +,2013-05-07 23:30:00,
2013-05-07 16:45:00,68.5,52.5,28.07,West,271,6.7,17.4,51,0.00,,,-99.99,HOBO +U30 +Weather +,2013-05-07 23:45:00,
2013-05-07 17:04:00,68.8,52.5,28.07,West,278,7.2,14.1,53,0.00,,,-99.99,HOBO +U30 +Weather +,2013-05-08 00:04:00,
2013-05-07 17:15:00,69.1,53.2,28.07,West,274,6.3,19.5,53,0.00,,,-99.99,HOBO +U30 +Weather +,2013-05-08 00:15:00,
2013-05-07 17:30:00,69.4,53.8,28.07,West,277,5.4,13.0,54,0.00,,,-99.99,HOBO +U30 +Weather +,2013-05-08 00:30:00,
2013-05-07 17:45:00,69.6,53.1,28.07,West,278,6.3,16.1,54,0.00,,,-99.99,HOBO +U30 +Weather +,2013-05-08 00:45:00,
2013-05-07 18:04:00,69.8,52.7,28.07,WNW,288,6.7,18.3,56,0.00,,,-99.99,HOBO +U30 +Weather +,2013-05-08 01:04:00,
2013-05-07 18:15:00,69.9,53.3,28.08,West,260,5.4,24.2,56,0.00,,,-99.99,HOBO +U30 +Weather +,2013-05-08 01:15:00,
2013-05-07 18:30:00,70.0,53.4,28.08,West,265,4.5,15.4,56,0.00,,,-99.99,HOBO +U30 +Weather +,2013-05-08 01:30:00,
2013-05-07 18:45:00,70.1,53.0,28.08,WNW,286,5.4,21.3,58,0.00,,,-99.99,HOBO +U30 +Weather +,2013-05-08 01:45:00,
2013-05-07 19:04:00,70.1,53.1,28.08,WSW,251,4.3,17.4,58,0.00,,,-99.99,HOBO +U30 +Weather +,2013-05-08 02:04:00,
2013-05-07 19:15:00,70.1,52.2,28.08,WSW,256,5.4,13.2,60,0.00,,,-99.99,HOBO +U30 +Weather +,2013-05-08 02:15:00,
2013-05-07 19:30:00,70.1,52.2,28.09,West,272,3.8,23.3,61,0.00,,,-99.99,HOBO +U30 +Weather +,2013-05-08 02:30:00,
2013-05-07 19:45:00,70.0,52.0,28.09,West,277,4.3,24.2,63,0.00,,,-99.99,HOBO +U30 +Weather +,2013-05-08 02:45:00,
2013-05-07 20:04:00,70.0,52.0,28.09,NW,314,1.6,5.4,67,0.00,,,-99.99,HOBO +U30 +Weather +,2013-05-08 03:04:00,
2013-05-07 20:15:00,69.9,51.9,28.09,NNW,329,1.6,25.3,71,0.00,,,-99.99,HOBO +U30 +Weather +,2013-05-08 03:15:00,
2013-05-07 20:30:00,69.8,52.0,28.10,North,355,1.6,22.8,75,0.00,,,-99.99,HOBO +U30 +Weather +,2013-05-08 03:30:00,
2013-05-07 20:45:00,69.6,52.1,28.10,North,354,2.5,22.8,77,0.00,,,-99.99,HOBO +U30 +Weather +,2013-05-08 03:45:00,
2013-05-07 21:04:00,69.5,52.5,28.11,NW,324,1.6,4.3,78,0.00,,,-99.99,HOBO +U30 +Weather +,2013-05-08 04:04:00,
2013-05-07 21:15:00,69.3,52.4,28.12,West,263,3.4,28.6,78,0.00,,,-99.99,HOBO +U30 +Weather +,2013-05-08 04:15:00,
2013-05-07 21:30:00,69.2,52.1,28.12,NNW,340,1.3,4.3,82,0.00,,,-99.99,HOBO +U30 +Weather +,2013-05-08 04:30:00,
2013-05-07 21:45:00,69.0,51.5,28.13,NNE,22,0.4,2.5,84,0.00,,,-99.99,HOBO +U30 +Weather +,2013-05-08 04:45:00,
2013-05-07 22:03:00,68.9,51.3,28.13,NNE,22,0.0,0.0,86,0.00,,,-99.99,HOBO +U30 +Weather +,2013-05-08 05:03:00,
2013-05-07 22:15:00,68.7,50.8,28.14,NNE,22,0.0,24.2,88,0.00,,,-99.99,HOBO +U30 +Weather +,2013-05-08 05:15:00,
2013-05-07 22:30:00,68.5,50.5,28.14,NNE,22,0.0,23.3,89,0.00,,,-99.99,HOBO +U30 +Weather +,2013-05-08 05:30:00,
2013-05-07 22:45:00,68.3,50.4,28.14,NNE,22,0.0,22.8,90,0.00,,,-99.99,HOBO +U30 +Weather +,2013-05-08 05:45:00,
2013-05-07 23:02:00,68.1,50.0,28.15,NNE,22,0.0,23.3,91,0.00,,,-99.99,HOBO +U30 +Weather +,2013-05-08 06:02:00,
2013-05-07 23:15:00,67.9,49.7,28.15,NNE,22,0.0,22.4,92,0.00,,,-99.99,HOBO +U30 +Weather +,2013-05-08 06:15:00,
2013-05-07 23:30:00,67.7,49.4,28.15,NNE,22,0.9,21.9,92,0.00,,,-99.99,HOBO +U30 +Weather +,2013-05-08 06:30:00,
2013-05-07 23:45:00,67.6,49.2,28.15,NNE,22,0.0,0.0,92,0.00,,,-99.99,HOBO +U30 +Weather +,2013-05-08 06:45:00,